| time (UTC) | temp F | wind direction | speed MPH | gust MPH | rain 1hr in | rain 24hr in | rain mn in | humidity % | barometer mb |
| 20260509214004 | 65 | 245 | 13.0 | 21.0 | 0.00 | 0.00 | 0.00 | 17 | 1003.5 |
| 20260509213005 | 67 | 230 | 8.0 | 14.0 | 0.00 | 0.00 | 0.00 | 16 | 1003.5 |
| 20260509212504 | 66 | 227 | 6.0 | 21.0 | 0.00 | 0.00 | 0.00 | 19 | 1003.5 |
| 20260509212004 | 66 | 228 | 4.0 | 12.0 | 0.00 | 0.00 | 0.00 | 17 | 1003.5 |
| 20260509211505 | 65 | 182 | 4.0 | 18.0 | 0.00 | 0.00 | 0.00 | 21 | 1003.6 |
| 20260509211004 | 65 | 227 | 9.0 | 17.0 | 0.00 | 0.00 | 0.00 | 17 | 1003.6 |
| 20260509210004 | 66 | 216 | 6.0 | 16.0 | 0.00 | 0.00 | 0.00 | 14 | 1003.6 |
| 20260509205504 | 66 | 269 | 7.0 | 17.0 | 0.00 | 0.00 | 0.00 | 19 | 1003.7 |
| 20260509205004 | 66 | 283 | 8.0 | 17.0 | 0.00 | 0.00 | 0.00 | 17 | 1003.6 |
| 20260509204504 | 66 | 251 | 7.0 | 14.0 | 0.00 | 0.00 | 0.00 | 16 | 1003.6 |
| 20260509204004 | 66 | 314 | 5.0 | 16.0 | 0.00 | 0.00 | 0.00 | 17 | 1003.6 |
| 20260509203504 | 66 | 249 | 9.0 | 16.0 | 0.00 | 0.00 | 0.00 | 18 | 1003.6 |
| 20260509202004 | 68 | 254 | 3.0 | 15.0 | 0.00 | 0.00 | 0.00 | 17 | 1003.5 |
| 20260509201504 | 68 | 284 | 10.0 | 20.0 | 0.00 | 0.00 | 0.00 | 17 | 1003.6 |
| 20260509201005 | 67 | 260 | 4.0 | 12.0 | 0.00 | 0.00 | 0.00 | 21 | 1003.5 |
| 20260509200004 | 67 | 311 | 10.0 | 16.0 | 0.00 | 0.00 | 0.00 | 20 | 1003.5 |
| 20260509195505 | 66 | 341 | 3.0 | 7.0 | 0.00 | 0.00 | 0.00 | 19 | 1003.8 |
| 20260509195004 | 66 | 253 | 6.0 | 14.0 | 0.00 | 0.00 | 0.00 | 18 | 1004.3 |
| 20260509194504 | 65 | 277 | 9.0 | 20.0 | 0.00 | 0.00 | 0.00 | 18 | 1004.5 |
| 20260509194004 | 65 | 256 | 12.0 | 20.0 | 0.00 | 0.00 | 0.00 | 19 | 1004.4 |
| 20260509193504 | 64 | 237 | 9.0 | 20.0 | 0.00 | 0.00 | 0.00 | 19 | 1004.5 |
| 20260509193004 | 65 | 279 | 10.0 | 17.0 | 0.00 | 0.00 | 0.00 | 18 | 1004.3 |
| 20260509192504 | 64 | 257 | 10.0 | 20.0 | 0.00 | 0.00 | 0.00 | 18 | 1004.1 |
| 20260509192004 | 64 | 199 | 10.0 | 17.0 | 0.00 | 0.00 | 0.00 | 20 | 1004.2 |
| 20260509191504 | 64 | 238 | 6.0 | 16.0 | 0.00 | 0.00 | 0.00 | 19 | 1004.3 |
| 20260509191004 | 64 | 246 | 12.0 | 20.0 | 0.00 | 0.00 | 0.00 | 18 | 1004.4 |
| 20260509190504 | 64 | 332 | 9.0 | 17.0 | 0.00 | 0.00 | 0.00 | 17 | 1004.2 |
| 20260509190005 | 64 | 275 | 9.0 | 21.0 | 0.00 | 0.00 | 0.00 | 20 | 1004.2 |
| 20260509185504 | 64 | 264 | 7.0 | 15.0 | 0.00 | 0.00 | 0.00 | 18 | 1004.2 |
| 20260509185004 | 63 | 270 | 6.0 | 16.0 | 0.00 | 0.00 | 0.00 | 19 | 1004.1 |
| 20260509184504 | 63 | 269 | 6.0 | 15.0 | 0.00 | 0.00 | 0.00 | 18 | 1004.3 |
| 20260509184004 | 63 | 225 | 8.0 | 14.0 | 0.00 | 0.00 | 0.00 | 17 | 1004.2 |
| 20260509183504 | 62 | 224 | 1.0 | 14.0 | 0.00 | 0.00 | 0.00 | 20 | 1004.3 |
| 20260509183004 | 62 | 231 | 12.0 | 24.0 | 0.00 | 0.00 | 0.00 | 18 | 1004.5 |
| 20260509182504 | 62 | 213 | 13.0 | 21.0 | 0.00 | 0.00 | 0.00 | 19 | 1004.3 |
| 20260509182004 | 62 | 246 | 10.0 | 21.0 | 0.00 | 0.00 | 0.00 | 20 | 1004.2 |
| 20260509180504 | 62 | 236 | 6.0 | 10.0 | 0.00 | 0.00 | 0.00 | 20 | 1004.3 |
| 20260509180004 | 63 | 242 | 5.0 | 12.0 | 0.00 | 0.00 | 0.00 | 18 | 1004.2 |
| 20260509175504 | 62 | 206 | 9.0 | 16.0 | 0.00 | 0.00 | 0.00 | 21 | 1004.2 |
| 20260509174505 | 61 | 259 | 5.0 | 13.0 | 0.00 | 0.00 | 0.00 | 20 | 1004.3 |
| 20260509174004 | 61 | 215 | 6.0 | 12.0 | 0.00 | 0.00 | 0.00 | 20 | 1004.4 |
| 20260509173505 | 61 | 251 | 9.0 | 17.0 | 0.00 | 0.00 | 0.00 | 20 | 1004.6 |
| 20260509172504 | 61 | 259 | 9.0 | 17.0 | 0.00 | 0.00 | 0.00 | 20 | 1004.6 |
| 20260509171504 | 60 | 248 | 9.0 | 18.0 | 0.00 | 0.00 | 0.00 | 23 | 1004.5 |
| 20260509171004 | 60 | 247 | 13.0 | 20.0 | 0.00 | 0.00 | 0.00 | 18 | 1004.4 |
| 20260509170505 | 60 | 240 | 9.0 | 18.0 | 0.00 | 0.00 | 0.00 | 23 | 1004.2 |
| 20260509165504 | 60 | 245 | 13.0 | 20.0 | 0.00 | 0.00 | 0.00 | 20 | 1004.4 |
| 20260509165004 | 60 | 243 | 11.0 | 20.0 | 0.00 | 0.00 | 0.00 | 22 | 1004.6 |
| 20260509164505 | 60 | 255 | 8.0 | 15.0 | 0.00 | 0.00 | 0.00 | 21 | 1004.7 |
| 20260509164004 | 60 | 203 | 10.0 | 20.0 | 0.00 | 0.00 | 0.00 | 21 | 1004.6 |
| 20260509163505 | 60 | 252 | 9.0 | 20.0 | 0.00 | 0.00 | 0.00 | 20 | 1004.5 |
| 20260509163005 | 60 | 221 | 9.0 | 15.0 | 0.00 | 0.00 | 0.00 | 20 | 1004.5 |
| 20260509162504 | 60 | 223 | 9.0 | 16.0 | 0.00 | 0.00 | 0.00 | 22 | 1004.5 |
| 20260509162004 | 60 | 225 | 6.0 | 14.0 | 0.00 | 0.00 | 0.00 | 22 | 1004.6 |
| 20260509161505 | 60 | 206 | 5.0 | 12.0 | 0.00 | 0.00 | 0.00 | 22 | 1004.6 |
| 20260509161004 | 60 | 250 | 6.0 | 15.0 | 0.00 | 0.00 | 0.00 | 22 | 1004.6 |
| 20260509160504 | 60 | 249 | 9.0 | 14.0 | 0.00 | 0.00 | 0.00 | 20 | 1004.6 |
| 20260509155504 | 60 | 240 | 5.0 | 10.0 | 0.00 | 0.00 | 0.00 | 21 | 1004.5 |
| 20260509155004 | 59 | 277 | 6.0 | 13.0 | 0.00 | 0.00 | 0.00 | 20 | 1004.4 |
| 20260509154505 | 59 | 225 | 5.0 | 10.0 | 0.00 | 0.00 | 0.00 | 22 | 1004.3 |
| 20260509154004 | 59 | 246 | 5.0 | 12.0 | 0.00 | 0.00 | 0.00 | 22 | 1004.2 |
| 20260509153504 | 59 | 219 | 3.0 | 12.0 | 0.00 | 0.00 | 0.00 | 20 | 1004.2 |
| 20260509152504 | 58 | 236 | 2.0 | 10.0 | 0.00 | 0.00 | 0.00 | 21 | 1004.6 |
| 20260509152004 | 58 | 248 | 6.0 | 13.0 | 0.00 | 0.00 | 0.00 | 21 | 1004.5 |
| 20260509151505 | 58 | 242 | 3.0 | 6.0 | 0.00 | 0.00 | 0.00 | 22 | 1004.6 |
| 20260509151004 | 58 | 299 | 3.0 | 9.0 | 0.00 | 0.00 | 0.00 | 22 | 1004.7 |
| 20260509150505 | 58 | 270 | 3.0 | 10.0 | 0.00 | 0.00 | 0.00 | 23 | 1004.8 |
| 20260509150004 | 57 | 291 | 5.0 | 10.0 | 0.00 | 0.00 | 0.00 | 25 | 1004.6 |
| 20260509145004 | 57 | 203 | 7.0 | 14.0 | 0.00 | 0.00 | 0.00 | 23 | 1004.7 |
| 20260509144504 | 57 | 199 | 7.0 | 12.0 | 0.00 | 0.00 | 0.00 | 26 | 1004.6 |
| 20260509144004 | 57 | 199 | 5.0 | 10.0 | 0.00 | 0.00 | 0.00 | 23 | 1004.7 |
| 20260509143504 | 57 | 237 | 6.0 | 13.0 | 0.00 | 0.00 | 0.00 | 22 | 1004.8 |
| 20260509143004 | 57 | 253 | 2.0 | 7.0 | 0.00 | 0.00 | 0.00 | 27 | 1004.7 |
| 20260509142504 | 57 | 85 | 3.0 | 6.0 | 0.00 | 0.00 | 0.00 | 27 | 1004.5 |
| 20260509142005 | 56 | 167 | 1.0 | 2.0 | 0.00 | 0.00 | 0.00 | 27 | 1004.7 |
| 20260509141504 | 56 | 280 | 0.0 | 2.0 | 0.00 | 0.00 | 0.00 | 26 | 1004.7 |
| 20260509141004 | 55 | 261 | 1.0 | 6.0 | 0.00 | 0.00 | 0.00 | 26 | 1004.7 |
| 20260509140505 | 54 | 243 | 3.0 | 10.0 | 0.00 | 0.00 | 0.00 | 29 | 1004.6 |
| 20260509140005 | 54 | 257 | 3.0 | 13.0 | 0.00 | 0.00 | 0.00 | 31 | 1004.7 |
| 20260509135505 | 54 | 249 | 2.0 | 12.0 | 0.00 | 0.00 | 0.00 | 31 | 1004.9 |
| 20260509134504 | 52 | 279 | 4.0 | 7.0 | 0.00 | 0.00 | 0.00 | 33 | 1005.2 |
| 20260509134004 | 52 | 257 | 6.0 | 15.0 | 0.00 | 0.00 | 0.00 | 31 | 1005.1 |
| 20260509133504 | 52 | 269 | 7.0 | 13.0 | 0.00 | 0.00 | 0.00 | 33 | 1005.2 |
| 20260509133005 | 52 | 287 | 2.0 | 6.0 | 0.00 | 0.00 | 0.00 | 35 | 1004.9 |
| 20260509132504 | 51 | 282 | 5.0 | 6.0 | 0.00 | 0.00 | 0.00 | 34 | 1004.8 |
| 20260509132004 | 51 | 265 | 4.0 | 7.0 | 0.00 | 0.00 | 0.00 | 37 | 1004.8 |
| 20260509131504 | 50 | 237 | 5.0 | 12.0 | 0.00 | 0.00 | 0.00 | 38 | 1004.8 |
| 20260509131005 | 50 | 252 | 3.0 | 9.0 | 0.00 | 0.00 | 0.00 | 38 | 1004.7 |
| 20260509130504 | 49 | 230 | 5.0 | 9.0 | 0.00 | 0.00 | 0.00 | 40 | 1004.7 |
| 20260509130004 | 48 | 253 | 4.0 | 12.0 | 0.00 | 0.00 | 0.00 | 39 | 1004.7 |
| 20260509125005 | 49 | 254 | 3.0 | 5.0 | 0.00 | 0.00 | 0.00 | 39 | 1004.5 |
| 20260509124504 | 49 | 254 | 5.0 | 9.0 | 0.00 | 0.00 | 0.00 | 38 | 1004.5 |
| 20260509123504 | 50 | 240 | 5.0 | 13.0 | 0.00 | 0.00 | 0.00 | 37 | 1004.3 |
| 20260509122503 | 50 | 258 | 4.0 | 8.0 | 0.00 | 0.00 | 0.00 | 37 | 1004.1 |
| 20260509121504 | 51 | 270 | 5.0 | 12.0 | 0.00 | 0.00 | 0.00 | 36 | 1004.0 |
| 20260509121004 | 51 | 248 | 5.0 | 12.0 | 0.00 | 0.00 | 0.00 | 35 | 1004.1 |
| 20260509120005 | 50 | 276 | 16.0 | 28.0 | 0.00 | 0.00 | 0.00 | 36 | 1003.7 |
| 20260509115504 | 49 | 263 | 8.0 | 12.0 | 0.00 | 0.00 | 0.00 | 40 | 1003.7 |
| 20260509115004 | 49 | 244 | 9.0 | 17.0 | 0.00 | 0.00 | 0.00 | 40 | 1003.9 |
| 20260509114504 | 49 | 243 | 8.0 | 21.0 | 0.00 | 0.00 | 0.00 | 41 | 1003.9 |
| 20260509113504 | 50 | 245 | 9.0 | 17.0 | 0.00 | 0.00 | 0.00 | 40 | 1003.7 |
| 20260509113004 | 50 | 250 | 10.0 | 17.0 | 0.00 | 0.00 | 0.00 | 40 | 1003.7 |
| 20260509112504 | 51 | 259 | 14.0 | 26.0 | 0.00 | 0.00 | 0.00 | 38 | 1003.5 |
| 20260509112004 | 51 | 248 | 7.0 | 18.0 | 0.00 | 0.00 | 0.00 | 39 | 1003.6 |
| 20260509111004 | 51 | 245 | 13.0 | 29.0 | 0.00 | 0.00 | 0.00 | 39 | 1003.3 |
| 20260509105004 | 50 | 242 | 12.0 | 20.0 | 0.00 | 0.00 | 0.00 | 41 | 1003.6 |
| 20260509104504 | 50 | 246 | 7.0 | 20.0 | 0.00 | 0.00 | 0.00 | 42 | 1003.8 |
| 20260509104004 | 50 | 232 | 7.0 | 14.0 | 0.00 | 0.00 | 0.00 | 42 | 1003.9 |
| 20260509103504 | 49 | 257 | 7.0 | 14.0 | 0.00 | 0.00 | 0.00 | 42 | 1004.1 |
| 20260509103004 | 49 | 236 | 6.0 | 14.0 | 0.00 | 0.00 | 0.00 | 43 | 1004.2 |
| 20260509102504 | 49 | 240 | 7.0 | 16.0 | 0.00 | 0.00 | 0.00 | 43 | 1003.8 |
| 20260509101504 | 50 | 254 | 7.0 | 16.0 | 0.00 | 0.00 | 0.00 | 42 | 1004.1 |
| 20260509101004 | 50 | 269 | 10.0 | 18.0 | 0.00 | 0.00 | 0.00 | 42 | 1004.0 |
| 20260509100505 | 51 | 244 | 7.0 | 15.0 | 0.00 | 0.00 | 0.00 | 41 | 1003.8 |
| 20260509100005 | 51 | 253 | 11.0 | 18.0 | 0.00 | 0.00 | 0.00 | 40 | 1003.9 |
| 20260509095504 | 51 | 254 | 9.0 | 17.0 | 0.00 | 0.00 | 0.00 | 41 | 1004.0 |
| 20260509095004 | 50 | 249 | 12.0 | 21.0 | 0.00 | 0.00 | 0.00 | 41 | 1003.8 |
| 20260509094504 | 50 | 244 | 7.0 | 15.0 | 0.00 | 0.00 | 0.00 | 42 | 1003.9 |
| 20260509094004 | 51 | 259 | 13.0 | 22.0 | 0.00 | 0.00 | 0.00 | 41 | 1003.8 |
| 20260509093504 | 50 | 246 | 11.0 | 24.0 | 0.00 | 0.00 | 0.00 | 42 | 1003.8 |
| 20260509093004 | 50 | 250 | 9.0 | 14.0 | 0.00 | 0.00 | 0.00 | 42 | 1003.8 |
| 20260509092004 | 49 | 244 | 7.0 | 13.0 | 0.00 | 0.00 | 0.00 | 44 | 1004.3 |
| 20260509091504 | 48 | 236 | 7.0 | 12.0 | 0.00 | 0.00 | 0.00 | 46 | 1004.5 |
| 20260509091004 | 48 | 241 | 6.0 | 12.0 | 0.00 | 0.00 | 0.00 | 47 | 1004.7 |
| 20260509090504 | 47 | 241 | 7.0 | 14.0 | 0.00 | 0.00 | 0.00 | 48 | 1004.7 |
| 20260509085504 | 44 | 251 | 5.0 | 12.0 | 0.00 | 0.00 | 0.00 | 57 | 1004.7 |
| 20260509085005 | 39 | 243 | 7.0 | 13.0 | 0.00 | 0.00 | 0.00 | 69 | 1004.7 |
| 20260509084504 | 35 | 241 | 6.0 | 14.0 | 0.00 | 0.00 | 0.00 | 82 | 1004.8 |
| 20260509083504 | 35 | 336 | 1.0 | 3.0 | 0.00 | 0.00 | 0.00 | 87 | 1004.7 |
| 20260509083004 | 35 | 317 | 1.0 | 5.0 | 0.00 | 0.00 | 0.00 | 88 | 1004.7 |
| 20260509082004 | 35 | 177 | 3.0 | 5.0 | 0.00 | 0.00 | 0.00 | 88 | 1004.7 |
| 20260509081004 | 35 | 177 | 1.0 | 3.0 | 0.00 | 0.00 | 0.00 | 87 | 1004.8 |
| 20260509080505 | 35 | 177 | 1.0 | 3.0 | 0.00 | 0.00 | 0.00 | 87 | 1004.8 |
| 20260509080004 | 35 | 288 | 1.0 | 3.0 | 0.00 | 0.00 | 0.00 | 87 | 1004.8 |
| 20260509075504 | 35 | 288 | 0.0 | 2.0 | 0.00 | 0.00 | 0.00 | 87 | 1004.8 |
| 20260509073504 | 36 | 288 | 3.0 | 3.0 | 0.00 | 0.00 | 0.00 | 86 | 1005.3 |
| 20260509073004 | 36 | 288 | 1.0 | 3.0 | 0.00 | 0.00 | 0.00 | 86 | 1005.4 |
| 20260509072504 | 36 | 288 | 2.0 | 3.0 | 0.00 | 0.00 | 0.00 | 86 | 1005.3 |
| 20260509071504 | 36 | 288 | 2.0 | 5.0 | 0.00 | 0.00 | 0.00 | 86 | 1005.4 |
| 20260509071004 | 36 | 321 | 2.0 | 3.0 | 0.00 | 0.00 | 0.00 | 85 | 1005.6 |
| 20260509070504 | 37 | 321 | 1.0 | 3.0 | 0.00 | 0.00 | 0.00 | 85 | 1005.6 |
| 20260509070005 | 37 | 321 | 0.0 | 2.0 | 0.00 | 0.00 | 0.00 | 85 | 1005.8 |
| 20260509065504 | 37 | 321 | 0.0 | 1.0 | 0.00 | 0.00 | 0.00 | 85 | 1005.8 |
| 20260509065004 | 37 | 321 | 3.0 | 5.0 | 0.00 | 0.00 | 0.00 | 84 | 1005.8 |
| 20260509064504 | 37 | 321 | 2.0 | 3.0 | 0.00 | 0.00 | 0.00 | 84 | 1005.8 |
| 20260509064004 | 37 | 321 | 1.0 | 2.0 | 0.00 | 0.00 | 0.00 | 84 | 1005.7 |
| 20260509063004 | 38 | 321 | 4.0 | 6.0 | 0.00 | 0.00 | 0.00 | 82 | 1005.8 |
| 20260509062504 | 38 | 215 | 2.0 | 3.0 | 0.00 | 0.00 | 0.00 | 82 | 1005.9 |
| 20260509062004 | 38 | 215 | 2.0 | 2.0 | 0.00 | 0.00 | 0.00 | 82 | 1005.9 |
| 20260509061504 | 38 | 215 | 1.0 | 3.0 | 0.00 | 0.00 | 0.00 | 81 | 1006.0 |
| 20260509060504 | 39 | 215 | 1.0 | 3.0 | 0.00 | 0.00 | 0.00 | 81 | 1006.0 |
| 20260509055504 | 39 | 215 | 1.0 | 2.0 | 0.00 | 0.00 | 0.00 | 80 | 1006.0 |
| 20260509055004 | 39 | 215 | 2.0 | 3.0 | 0.00 | 0.00 | 0.00 | 80 | 1006.2 |
| 20260509054504 | 39 | 215 | 2.0 | 3.0 | 0.00 | 0.00 | 0.00 | 79 | 1006.5 |
| 20260509054004 | 40 | 215 | 2.0 | 3.0 | 0.00 | 0.00 | 0.00 | 78 | 1006.5 |
| 20260509053504 | 40 | 215 | 1.0 | 3.0 | 0.00 | 0.00 | 0.00 | 77 | 1006.6 |
| 20260509053004 | 40 | 215 | 0.0 | 1.0 | 0.00 | 0.00 | 0.00 | 76 | 1006.6 |
| 20260509052004 | 41 | 215 | 1.0 | 3.0 | 0.00 | 0.00 | 0.00 | 76 | 1006.7 |
| 20260509051004 | 41 | 215 | 2.0 | 3.0 | 0.00 | 0.00 | 0.00 | 77 | 1006.7 |
| 20260509050504 | 41 | 215 | 1.0 | 3.0 | 0.00 | 0.00 | 0.00 | 79 | 1006.7 |
| 20260509045504 | 41 | 21 | 1.0 | 2.0 | 0.00 | 0.00 | 0.00 | 79 | 1006.7 |
| 20260509045004 | 41 | 21 | 1.0 | 2.0 | 0.00 | 0.00 | 0.00 | 79 | 1006.7 |
| 20260509044504 | 41 | 21 | 0.0 | 1.0 | 0.00 | 0.00 | 0.00 | 79 | 1006.7 |
| 20260509043004 | 42 | 218 | 0.0 | 2.0 | 0.00 | 0.00 | 0.00 | 77 | 1007.1 |
| 20260509042504 | 42 | 218 | 0.0 | 2.0 | 0.00 | 0.00 | 0.00 | 77 | 1007.1 |
| 20260509042004 | 42 | 218 | 1.0 | 3.0 | 0.00 | 0.01 | 0.00 | 77 | 1007.1 |
| 20260509041504 | 42 | 218 | 3.0 | 5.0 | 0.00 | 0.01 | 0.00 | 77 | 1006.9 |
| 20260509041004 | 42 | 18 | 0.0 | 2.0 | 0.00 | 0.01 | 0.00 | 77 | 1006.8 |
| 20260509040504 | 43 | 18 | 1.0 | 2.0 | 0.00 | 0.01 | 0.00 | 77 | 1006.7 |
| 20260509040005 | 43 | 18 | 1.0 | 2.0 | 0.00 | 0.01 | 0.00 | 76 | 1007.0 |
| 20260509035004 | 43 | 18 | 2.0 | 3.0 | 0.00 | 0.01 | 0.00 | 76 | 1006.9 |
| 20260509034504 | 43 | 18 | 0.0 | 0.0 | 0.00 | 0.01 | 0.00 | 75 | 1006.8 |
| 20260509033504 | 44 | 18 | 3.0 | 3.0 | 0.00 | 0.01 | 0.00 | 74 | 1006.8 |
| 20260509033004 | 44 | 18 | 3.0 | 3.0 | 0.00 | 0.01 | 0.00 | 73 | 1006.8 |
| 20260509032504 | 44 | 18 | 2.0 | 3.0 | 0.00 | 0.01 | 0.00 | 73 | 1006.7 |
| 20260509032004 | 45 | 18 | 2.0 | 3.0 | 0.00 | 0.01 | 0.00 | 72 | 1006.7 |
| 20260509031505 | 45 | 18 | 2.0 | 3.0 | 0.00 | 0.01 | 0.00 | 73 | 1006.7 |
| 20260509031004 | 45 | 18 | 1.0 | 2.0 | 0.00 | 0.01 | 0.00 | 73 | 1006.6 |
| 20260509030504 | 45 | 18 | 3.0 | 3.0 | 0.00 | 0.01 | 0.00 | 73 | 1006.6 |
| 20260509030004 | 45 | 18 | 1.0 | 3.0 | 0.00 | 0.01 | 0.00 | 72 | 1006.5 |
| 20260509025505 | 46 | 18 | 2.0 | 3.0 | 0.00 | 0.01 | 0.00 | 71 | 1006.6 |
| 20260509024504 | 47 | 18 | 1.0 | 3.0 | 0.00 | 0.01 | 0.00 | 68 | 1006.6 |
| 20260509024005 | 48 | 18 | 3.0 | 5.0 | 0.00 | 0.01 | 0.00 | 68 | 1006.5 |
| 20260509023504 | 48 | 18 | 1.0 | 3.0 | 0.00 | 0.01 | 0.00 | 67 | 1006.6 |
| 20260509023004 | 48 | 18 | 1.0 | 3.0 | 0.00 | 0.01 | 0.00 | 66 | 1006.5 |
| 20260509022504 | 49 | 18 | 2.0 | 3.0 | 0.00 | 0.01 | 0.00 | 65 | 1006.5 |
| 20260509022004 | 50 | 18 | 4.0 | 5.0 | 0.00 | 0.01 | 0.00 | 63 | 1006.5 |
| 20260509021504 | 51 | 18 | 4.0 | 6.0 | 0.00 | 0.01 | 0.00 | 62 | 1006.4 |
| 20260509021004 | 51 | 7 | 3.0 | 7.0 | 0.00 | 0.01 | 0.00 | 60 | 1006.5 |
| 20260509020505 | 51 | 262 | 0.0 | 3.0 | 0.00 | 0.01 | 0.00 | 60 | 1006.5 |
| 20260509015503 | 52 | 250 | 0.0 | 2.0 | 0.00 | 0.01 | 0.00 | 59 | 1006.5 |
| 20260509015004 | 52 | 148 | 2.0 | 3.0 | 0.00 | 0.01 | 0.00 | 58 | 1006.5 |
| 20260509014504 | 53 | 148 | 1.0 | 3.0 | 0.00 | 0.01 | 0.00 | 58 | 1006.4 |
| 20260509014004 | 53 | 93 | 4.0 | 10.0 | 0.00 | 0.01 | 0.00 | 57 | 1006.4 |
| 20260509013504 | 53 | 129 | 5.0 | 8.0 | 0.00 | 0.01 | 0.00 | 57 | 1006.4 |
| 20260509013004 | 54 | 93 | 4.0 | 7.0 | 0.00 | 0.01 | 0.00 | 56 | 1006.4 |
| 20260509012504 | 54 | 31 | 5.0 | 10.0 | 0.00 | 0.01 | 0.00 | 56 | 1006.3 |
| 20260509012004 | 55 | 54 | 5.0 | 10.0 | 0.00 | 0.01 | 0.00 | 54 | 1006.2 |
| 20260509011504 | 55 | 351 | 4.0 | 7.0 | 0.00 | 0.01 | 0.00 | 53 | 1006.2 |
| 20260509011004 | 56 | 352 | 3.0 | 6.0 | 0.00 | 0.01 | 0.00 | 53 | 1006.1 |
| 20260509010505 | 56 | 75 | 6.0 | 12.0 | 0.00 | 0.01 | 0.00 | 52 | 1005.9 |
| 20260509010004 | 57 | 25 | 4.0 | 10.0 | 0.00 | 0.01 | 0.00 | 52 | 1006.0 |
| 20260509005004 | 57 | 344 | 2.0 | 6.0 | 0.00 | 0.01 | 0.00 | 51 | 1006.0 |
| 20260509004504 | 57 | 8 | 5.0 | 7.0 | 0.00 | 0.01 | 0.00 | 49 | 1005.9 |
| 20260509004005 | 57 | 22 | 6.0 | 8.0 | 0.00 | 0.01 | 0.00 | 50 | 1005.9 |
| 20260509003504 | 58 | 17 | 5.0 | 9.0 | 0.00 | 0.01 | 0.00 | 48 | 1005.9 |
| 20260509003004 | 58 | 77 | 5.0 | 9.0 | 0.00 | 0.01 | 0.00 | 48 | 1005.8 |
| 20260509002504 | 58 | 44 | 3.0 | 6.0 | 0.00 | 0.01 | 0.00 | 48 | 1005.9 |
| 20260509001504 | 60 | 121 | 3.0 | 12.0 | 0.00 | 0.01 | 0.00 | 45 | 1005.9 |
| 20260509000505 | 63 | 271 | 2.0 | 3.0 | 0.00 | 0.01 | 0.00 | 28 | 1006.1 |
| 20260509000005 | 63 | 271 | 2.0 | 3.0 | 0.00 | 0.01 | 0.00 | 29 | 1006.1 |
| 20260508235504 | 63 | 302 | 3.0 | 5.0 | 0.00 | 0.01 | 0.00 | 29 | 1006.2 |
| 20260508235004 | 64 | 313 | 6.0 | 12.0 | 0.00 | 0.01 | 0.00 | 29 | 1006.2 |
| 20260508234504 | 64 | 289 | 3.0 | 12.0 | 0.00 | 0.01 | 0.00 | 29 | 1006.1 |
| 20260508234004 | 64 | 309 | 9.0 | 12.0 | 0.00 | 0.01 | 0.00 | 28 | 1006.2 |
| 20260508233504 | 63 | 271 | 3.0 | 12.0 | 0.00 | 0.01 | 0.00 | 28 | 1006.2 |
| 20260508233004 | 63 | 270 | 7.0 | 12.0 | 0.00 | 0.01 | 0.00 | 28 | 1006.2 |
| 20260508232504 | 61 | 271 | 9.0 | 15.0 | 0.00 | 0.01 | 0.00 | 32 | 1006.1 |
| 20260508232004 | 61 | 263 | 2.0 | 3.0 | 0.00 | 0.01 | 0.00 | 31 | 1006.2 |
| 20260508231504 | 61 | 263 | 4.0 | 10.0 | 0.00 | 0.01 | 0.00 | 28 | 1006.2 |
| 20260508231004 | 62 | 273 | 5.0 | 12.0 | 0.00 | 0.01 | 0.00 | 28 | 1006.1 |
| 20260508230504 | 62 | 274 | 8.0 | 14.0 | 0.00 | 0.01 | 0.00 | 29 | 1006.1 |
| 20260508225504 | 62 | 278 | 3.0 | 17.0 | 0.00 | 0.01 | 0.00 | 29 | 1006.3 |
| 20260508225004 | 62 | 279 | 5.0 | 10.0 | 0.00 | 0.01 | 0.00 | 31 | 1006.7 |
| 20260508224504 | 62 | 322 | 5.0 | 12.0 | 0.00 | 0.01 | 0.00 | 31 | 1006.7 |
| 20260508224005 | 63 | 256 | 6.0 | 12.0 | 0.00 | 0.01 | 0.00 | 29 | 1006.6 |
| 20260508223004 | 62 | 266 | 9.0 | 16.0 | 0.00 | 0.01 | 0.00 | 30 | 1006.7 |
| 20260508222504 | 61 | 267 | 5.0 | 12.0 | 0.00 | 0.01 | 0.00 | 32 | 1006.6 |
| 20260508222004 | 60 | 219 | 5.0 | 10.0 | 0.00 | 0.01 | 0.00 | 42 | 1006.4 |
| 20260508221504 | 60 | 178 | 6.0 | 10.0 | 0.00 | 0.01 | 0.00 | 43 | 1006.4 |
| 20260508221005 | 59 | 21 | 4.0 | 7.0 | 0.00 | 0.01 | 0.00 | 45 | 1006.4 |
| 20260508220504 | 58 | 52 | 2.0 | 5.0 | 0.00 | 0.01 | 0.00 | 50 | 1006.4 |
| 20260508220004 | 57 | 152 | 1.0 | 7.0 | 0.00 | 0.01 | 0.00 | 50 | 1006.5 |
| 20260508215504 | 58 | 151 | 3.0 | 9.0 | 0.00 | 0.01 | 0.00 | 46 | 1006.5 |
| 20260508215004 | 58 | 223 | 1.0 | 3.0 | 0.00 | 0.01 | 0.00 | 49 | 1006.5 |